This is the latest recevied weather packets stored in our database for station/object HB9FHL-13. If no packets are shown the sender has not sent any weather packets the latest 10 day(s).
| Time | Temp. | Humidity | Pressure | Rain* | Wind** | Luminosity | Snow |
|---|---|---|---|---|---|---|---|
| 1788649239 | 18.89° C | - | 1029 hPa | 0 mm | - | - | - |
| 1788648939 | 18.33° C | - | 1026.1 hPa | 0 mm | - | - | - |
| 1788648635 | 18.33° C | - | 1029.4 hPa | 0 mm | - | - | - |
| 1788648336 | 19.44° C | - | 1030.1 hPa | 0 mm | - | - | - |
| 1788647733 | 19.44° C | - | 1027.7 hPa | 0 mm | - | - | - |
| 1788647432 | 19.44° C | - | 1031.4 hPa | 0 mm | - | - | - |
| 1788647132 | 18.89° C | - | 1027 hPa | 0 mm | - | - | - |
| 1788646832 | 18.89° C | - | 1029.3 hPa | 0 mm | - | - | - |
| 1788646531 | 18.89° C | - | 1029.6 hPa | 0 mm | - | - | - |
| 1788646230 | 19.44° C | - | 1027.4 hPa | 0 mm | - | - | - |
| 1788645988 | 18.89° C | - | 1026.1 hPa | 0 mm | - | - | - |
| 1788645930 | 18.89° C | - | 1026.1 hPa | 0 mm | - | - | - |
| 1788645631 | 19.44° C | - | 1032.1 hPa | 0 mm | - | - | - |
| 1788645019 | 19.44° C | - | 1026.7 hPa | 0 mm | - | - | - |
| 1788644719 | 18.89° C | - | 1028.3 hPa | 0 mm | - | - | - |
| 1788644118 | 18.33° C | - | 1029.5 hPa | 0 mm | - | - | - |
| 1788643818 | 19.44° C | - | 1027.3 hPa | 0 mm | - | - | - |
| 1788643515 | 18.89° C | - | 1028.6 hPa | 0 mm | - | - | - |
| 1788643214 | 19.44° C | - | 1030 hPa | 0 mm | - | - | - |
| 1788642613 | 20° C | - | 1029.5 hPa | 0 mm | - | - | - |
| 1788642312 | 18.89° C | - | 1027.7 hPa | 0 mm | - | - | - |
| 1788642009 | 20° C | - | 1027.5 hPa | 0 mm | - | - | - |
| 1788641408 | 20° C | - | 1028.1 hPa | 0 mm | - | - | - |
| 1788641108 | 19.44° C | - | 1029.3 hPa | 0 mm | - | - | - |
| 1788640807 | 19.44° C | - | 1029.4 hPa | 0 mm | - | - | - |
* Rain since midnight (hover to see other rain measurements)
** Current wind speed in m/s (hover to see current wind gust speed)